Main page
METAR-TAF:

METAR-TAF

Airports :

Le Mars Municipal Airport

Le Mars, Iowa, United States

latitude: 42-46-41N, longitude: 096-11-37W, elevation: 1197 ft

Current weather observation

The report was made 18 minutes ago, at 21:35 UTC
Wind 21 mph from the Southwest with gusts up to 28 mph
Temperature 100°F
Humidity 24%
Pressure 29.74 in. Hg
Visibility: 10 miles
Clear sky

METAR: KLRJ 022135Z AUTO 22018G24KT 10SM CLR 38/14 A2974 RMK AO2

Time: 16:53 (21:53 UTC)


TAF: missing

Weather observations and forecasts of more than 4000 airports (METAR and TAF reports).

The available stations are represented by yellow and red dots on the map.

Hover mouse over dot to see the name of the station.

Then click to see weather observations and forecasts.

To change the map : click on the green buttons with a black cross to zoom in, on the green button with a dash to zoom out, or on the green arrows for adjacent maps.


METAR-TAF: